Torna al catalogo

LO-74

CUBEBUG 2

AttivoRadioamatoreSSO
NORAD 39440·PAYLOAD·🇦🇷 Argentina

Lanciato Nov 21, 2013 da Dombarovsky

Loading…

Prossimi Passaggi (prossime 24 ore)

TLE

AggiornatoSource: AMSAT

Epoca: Sep 14, 2026, 03:19 UTC

1 39440U 13066AA  26257.13862932  .00003454  00000-0  31672-3 0  9990
2 39440  97.8982 206.5592 0058666  92.2567 268.5372 14.94259901690277

Traccia LO-74 in tempo reale con AllMySat

Download on the App Store